This is the latest recevied weather packets stored in our database for station/object SQ6IUS-13. If no packets are shown the sender has not sent any weather packets the latest 10 day(s).
| Time | Temp. | Humidity | Pressure | Rain* | Wind** | Luminosity | Snow |
|---|---|---|---|---|---|---|---|
| 1777358559 | 6.67° C | 49% | 1025.8 hPa | - | - | - | - |
| 1777356761 | 5.56° C | 53% | 1025.7 hPa | - | - | - | - |
| 1777355862 | 5° C | 56% | 1025.6 hPa | - | - | - | - |
| 1777354963 | 4.44° C | 58% | 1025.6 hPa | - | - | - | - |
| 1777354064 | 4.44° C | 60% | 1025.6 hPa | - | - | - | - |
| 1777353164 | 3.89° C | 60% | 1025.5 hPa | - | - | - | - |
| 1777352265 | 3.89° C | 62% | 1025.3 hPa | - | - | - | - |
| 1777351366 | 3.33° C | 68% | 1025 hPa | - | - | - | - |
| 1777350466 | 2.78° C | 76% | 1024.7 hPa | - | - | - | - |
| 1777349568 | 2.22° C | 77% | 1024.7 hPa | - | - | - | - |
| 1777348669 | 2.22° C | 77% | 1024.6 hPa | - | - | - | - |
| 1777347771 | 2.22° C | 78% | 1024.5 hPa | - | - | - | - |
| 1777346871 | 2.22° C | 78% | 1024.4 hPa | - | - | - | - |
| 1777345973 | 2.78° C | 73% | 1024.3 hPa | - | - | - | - |
| 1777345074 | 3.33° C | 75% | 1024.2 hPa | - | - | - | - |
| 1777344176 | 3.33° C | 75% | 1024.1 hPa | - | - | - | - |
| 1777343278 | 3.89° C | 74% | 1024 hPa | - | - | - | - |
| 1777342379 | 3.89° C | 74% | 1023.9 hPa | - | - | - | - |
| 1777341480 | 3.89° C | 68% | 1023.8 hPa | - | - | - | - |
| 1777340581 | 4.44° C | 67% | 1023.5 hPa | - | - | - | - |
| 1777339683 | 4.44° C | 76% | 1023.5 hPa | - | - | - | - |
| 1777338783 | 4.44° C | 82% | 1023.5 hPa | - | - | - | - |
| 1777337884 | 4.44° C | 88% | 1023.5 hPa | - | - | - | - |
| 1777336985 | 4.44° C | 100% | 1023.4 hPa | - | - | - | - |
| 1777336086 | 5° C | 100% | 1023.2 hPa | - | - | - | - |
* Rain since midnight (hover to see other rain measurements)
** Current wind speed in m/s (hover to see current wind gust speed)